| time (UTC) | temp F | wind direction | speed MPH | gust MPH | rain 1hr in | rain 24hr in | rain mn in | humidity % | barometer mb |
| 20260505233606 | 48 | 67 | 5.0 | 7.0 | 0.00 | 0.00 | 0.00 | 73 | 1006.9 |
| 20260505232709 | 48 | 69 | 5.0 | 7.0 | 0.00 | 0.00 | 0.00 | 73 | 1007.0 |
| 20260505231806 | 48 | 51 | 6.0 | 8.0 | 0.00 | 0.00 | 0.00 | 73 | 1006.9 |
| 20260505230907 | 48 | 81 | 5.0 | 7.0 | 0.00 | 0.00 | 0.00 | 73 | 1007.0 |
| 20260505230009 | 48 | 75 | 5.0 | 7.0 | 0.00 | 0.00 | 0.00 | 72 | 1007.0 |
| 20260505225409 | 48 | 69 | 4.0 | 6.0 | 0.00 | 0.00 | 0.00 | 72 | 1007.2 |
| 20260505224719 | 48 | 63 | 5.0 | 7.0 | 0.00 | 0.00 | 0.00 | 73 | 1007.0 |
| 20260505223608 | 49 | 76 | 3.0 | 4.0 | 0.00 | 0.00 | 0.00 | 73 | 1006.9 |
| 20260505222708 | 49 | 74 | 2.0 | 4.0 | 0.00 | 0.00 | 0.00 | 73 | 1007.0 |
| 20260505221809 | 49 | 76 | 3.0 | 6.0 | 0.00 | 0.00 | 0.00 | 73 | 1007.1 |
| 20260505220905 | 49 | 69 | 4.0 | 7.0 | 0.00 | 0.00 | 0.00 | 73 | 1007.0 |
| 20260505220008 | 49 | 61 | 5.0 | 7.0 | 0.00 | 0.00 | 0.00 | 73 | 1006.9 |
| 20260505215408 | 49 | 38 | 6.0 | 11.0 | 0.00 | 0.00 | 0.00 | 73 | 1006.8 |
| 20260505214505 | 49 | 39 | 5.0 | 7.0 | 0.00 | 0.00 | 0.00 | 73 | 1006.8 |
| 20260505213823 | 49 | 62 | 5.0 | 11.0 | 0.00 | 0.00 | 0.00 | 73 | 1006.9 |
| 20260505212706 | 50 | 49 | 5.0 | 8.0 | 0.00 | 0.00 | 0.00 | 73 | 1006.7 |
| 20260505211806 | 50 | 39 | 4.0 | 6.0 | 0.00 | 0.00 | 0.00 | 73 | 1006.7 |
| 20260505210909 | 51 | 24 | 3.0 | 6.0 | 0.00 | 0.00 | 0.00 | 73 | 1006.6 |
| 20260505210006 | 51 | 358 | 3.0 | 6.0 | 0.00 | 0.00 | 0.00 | 73 | 1006.7 |
| 20260505205412 | 51 | 352 | 3.0 | 4.0 | 0.00 | 0.00 | 0.00 | 73 | 1006.5 |
| 20260505204507 | 51 | 329 | 4.0 | 6.0 | 0.00 | 0.00 | 0.00 | 73 | 1006.5 |
| 20260505203605 | 51 | 331 | 5.0 | 7.0 | 0.00 | 0.00 | 0.00 | 72 | 1006.5 |
| 20260505202706 | 51 | 319 | 6.0 | 9.0 | 0.00 | 0.00 | 0.00 | 72 | 1006.6 |
| 20260505201805 | 51 | 326 | 6.0 | 9.0 | 0.00 | 0.00 | 0.00 | 72 | 1006.5 |
| 20260505201115 | 51 | 334 | 5.0 | 8.0 | 0.00 | 0.00 | 0.00 | 72 | 1006.6 |
| 20260505200009 | 51 | 324 | 5.0 | 9.0 | 0.00 | 0.00 | 0.00 | 72 | 1006.2 |
| 20260505195405 | 51 | 330 | 5.0 | 8.0 | 0.00 | 0.00 | 0.00 | 72 | 1006.5 |
| 20260505194506 | 51 | 323 | 7.0 | 8.0 | 0.00 | 0.00 | 0.00 | 71 | 1006.4 |
| 20260505193607 | 51 | 337 | 5.0 | 8.0 | 0.00 | 0.00 | 0.00 | 71 | 1006.4 |
| 20260505192709 | 51 | 326 | 6.0 | 8.0 | 0.00 | 0.00 | 0.00 | 71 | 1006.2 |
| 20260505191807 | 51 | 335 | 5.0 | 8.0 | 0.00 | 0.00 | 0.00 | 71 | 1006.3 |
| 20260505190907 | 52 | 327 | 6.0 | 8.0 | 0.00 | 0.00 | 0.00 | 70 | 1006.1 |
| 20260505190008 | 52 | 319 | 6.0 | 7.0 | 0.00 | 0.00 | 0.00 | 70 | 1006.0 |
| 20260505185405 | 52 | 322 | 7.0 | 9.0 | 0.00 | 0.00 | 0.00 | 70 | 1006.1 |
| 20260505184505 | 51 | 327 | 8.0 | 11.0 | 0.00 | 0.00 | 0.00 | 71 | 1006.0 |
| 20260505183607 | 52 | 310 | 7.0 | 11.0 | 0.00 | 0.00 | 0.00 | 72 | 1006.1 |
| 20260505182709 | 52 | 327 | 8.0 | 11.0 | 0.00 | 0.00 | 0.00 | 72 | 1006.1 |
| 20260505181807 | 52 | 318 | 9.0 | 14.0 | 0.00 | 0.00 | 0.00 | 72 | 1006.1 |
| 20260505180905 | 52 | 316 | 8.0 | 9.0 | 0.00 | 0.00 | 0.00 | 72 | 1006.1 |
| 20260505180007 | 53 | 308 | 9.0 | 11.0 | 0.00 | 0.00 | 0.00 | 71 | 1006.3 |
| 20260505175407 | 53 | 310 | 10.0 | 11.0 | 0.00 | 0.00 | 0.00 | 68 | 1006.0 |
| 20260505174508 | 53 | 313 | 9.0 | 11.0 | 0.00 | 0.00 | 0.00 | 68 | 1006.0 |
| 20260505173605 | 54 | 339 | 9.0 | 11.0 | 0.00 | 0.00 | 0.00 | 68 | 1005.9 |
| 20260505172705 | 54 | 322 | 9.0 | 13.0 | 0.00 | 0.00 | 0.00 | 68 | 1005.8 |
| 20260505172020 | 53 | 336 | 10.0 | 13.0 | 0.00 | 0.00 | 0.00 | 68 | 1006.2 |
| 20260505170905 | 53 | 321 | 10.0 | 15.0 | 0.00 | 0.00 | 0.00 | 68 | 1006.1 |
| 20260505170009 | 54 | 323 | 9.0 | 15.0 | 0.00 | 0.00 | 0.00 | 65 | 1006.1 |
| 20260505165406 | 54 | 323 | 10.0 | 11.0 | 0.00 | 0.00 | 0.00 | 66 | 1006.1 |
| 20260505164506 | 55 | 329 | 10.0 | 14.0 | 0.00 | 0.00 | 0.00 | 63 | 1006.2 |
| 20260505163608 | 54 | 327 | 8.0 | 11.0 | 0.00 | 0.00 | 0.00 | 65 | 1006.0 |
| 20260505162707 | 53 | 311 | 7.0 | 11.0 | 0.00 | 0.00 | 0.00 | 63 | 1006.0 |
| 20260505161808 | 54 | 314 | 9.0 | 11.0 | 0.00 | 0.00 | 0.00 | 67 | 1006.1 |
| 20260505161117 | 53 | 330 | 9.0 | 14.0 | 0.00 | 0.00 | 0.00 | 71 | 1006.0 |
| 20260505152919 | 55 | 340 | 9.0 | 11.0 | 0.00 | 0.00 | 0.00 | 69 | 1006.1 |
| 20260505151807 | 54 | 306 | 9.0 | 11.0 | 0.00 | 0.00 | 0.00 | 69 | 1006.2 |
| 20260505151118 | 54 | 318 | 10.0 | 13.0 | 0.00 | 0.00 | 0.00 | 69 | 1006.2 |
| 20260505124507 | 53 | 332 | 12.0 | 16.0 | 0.00 | 0.00 | 0.00 | 71 | 1006.3 |
| 20260505123606 | 52 | 322 | 12.0 | 15.0 | 0.00 | 0.00 | 0.00 | 72 | 1006.2 |
| 20260505122705 | 53 | 311 | 12.0 | 17.0 | 0.00 | 0.00 | 0.00 | 71 | 1006.4 |
| 20260505122018 | 54 | 305 | 12.0 | 16.0 | 0.00 | 0.00 | 0.00 | 69 | 1006.4 |
| 20260505120907 | 54 | 318 | 9.0 | 11.0 | 0.00 | 0.00 | 0.00 | 68 | 1006.3 |
| 20260505120007 | 54 | 304 | 7.0 | 11.0 | 0.00 | 0.00 | 0.00 | 65 | 1006.2 |
| 20260505115619 | 54 | 315 | 7.0 | 9.0 | 0.00 | 0.00 | 0.00 | 64 | 1006.4 |
| 20260505114506 | 55 | 322 | 8.0 | 14.0 | 0.00 | 0.00 | 0.00 | 64 | 1006.3 |
| 20260505113607 | 54 | 328 | 9.0 | 14.0 | 0.00 | 0.00 | 0.00 | 61 | 1006.5 |
| 20260505112705 | 55 | 317 | 9.0 | 14.0 | 0.00 | 0.00 | 0.00 | 66 | 1006.6 |
| 20260505111807 | 54 | 313 | 9.0 | 11.0 | 0.00 | 0.00 | 0.00 | 66 | 1006.7 |
| 20260505110907 | 53 | 333 | 9.0 | 11.0 | 0.00 | 0.00 | 0.00 | 66 | 1006.8 |
| 20260505101808 | 52 | 305 | 9.0 | 14.0 | 0.00 | 0.00 | 0.00 | 73 | 1006.6 |
| 20260505100905 | 53 | 318 | 7.0 | 11.0 | 0.00 | 0.00 | 0.00 | 71 | 1006.7 |
| 20260505100006 | 53 | 312 | 8.0 | 11.0 | 0.00 | 0.00 | 0.00 | 73 | 1006.8 |
| 20260505095405 | 52 | 321 | 8.0 | 11.0 | 0.00 | 0.00 | 0.00 | 74 | 1006.7 |
| 20260505094505 | 52 | 321 | 8.0 | 13.0 | 0.00 | 0.00 | 0.00 | 75 | 1006.8 |
| 20260505093605 | 52 | 341 | 7.0 | 11.0 | 0.00 | 0.00 | 0.00 | 75 | 1006.8 |
| 20260505092705 | 51 | 327 | 7.0 | 9.0 | 0.00 | 0.00 | 0.00 | 75 | 1006.9 |
| 20260505091809 | 51 | 323 | 8.0 | 11.0 | 0.00 | 0.00 | 0.00 | 76 | 1006.8 |
| 20260505090905 | 51 | 331 | 7.0 | 11.0 | 0.00 | 0.00 | 0.00 | 75 | 1006.9 |
| 20260505090006 | 52 | 335 | 5.0 | 11.0 | 0.00 | 0.00 | 0.00 | 75 | 1007.1 |
| 20260505085621 | 52 | 340 | 5.0 | 7.0 | 0.00 | 0.00 | 0.00 | 75 | 1007.0 |
| 20260505084505 | 51 | 325 | 6.0 | 9.0 | 0.00 | 0.00 | 0.00 | 76 | 1007.1 |
| 20260505083607 | 52 | 334 | 5.0 | 6.0 | 0.00 | 0.00 | 0.00 | 77 | 1007.0 |
| 20260505082705 | 51 | 332 | 6.0 | 8.0 | 0.00 | 0.00 | 0.00 | 77 | 1006.9 |
| 20260505081808 | 51 | 325 | 6.0 | 8.0 | 0.00 | 0.00 | 0.00 | 79 | 1006.9 |
| 20260505080905 | 51 | 336 | 7.0 | 11.0 | 0.00 | 0.00 | 0.00 | 79 | 1006.8 |
| 20260505080007 | 51 | 329 | 5.0 | 11.0 | 0.00 | 0.00 | 0.00 | 81 | 1006.7 |
| 20260505075405 | 51 | 326 | 6.0 | 8.0 | 0.00 | 0.00 | 0.00 | 81 | 1006.6 |
| 20260505074509 | 51 | 326 | 5.0 | 8.0 | 0.00 | 0.00 | 0.00 | 81 | 1006.5 |
| 20260505073605 | 50 | 335 | 7.0 | 11.0 | 0.00 | 0.00 | 0.00 | 81 | 1006.7 |
| 20260505072705 | 50 | 333 | 7.0 | 11.0 | 0.00 | 0.00 | 0.00 | 81 | 1006.7 |
| 20260505071806 | 50 | 329 | 6.0 | 11.0 | 0.00 | 0.00 | 0.00 | 81 | 1006.6 |
| 20260505070906 | 50 | 328 | 5.0 | 6.0 | 0.00 | 0.00 | 0.00 | 81 | 1006.6 |
| 20260505070009 | 50 | 326 | 5.0 | 8.0 | 0.00 | 0.00 | 0.00 | 81 | 1006.5 |
| 20260505065405 | 50 | 310 | 4.0 | 7.0 | 0.00 | 0.00 | 0.00 | 80 | 1006.7 |
| 20260505064508 | 50 | 326 | 3.0 | 6.0 | 0.00 | 0.00 | 0.00 | 80 | 1006.6 |
| 20260505063606 | 49 | 327 | 3.0 | 6.0 | 0.00 | 0.00 | 0.00 | 80 | 1006.8 |
| 20260505062707 | 49 | 309 | 3.0 | 4.0 | 0.00 | 0.00 | 0.00 | 80 | 1006.8 |
| 20260505062017 | 49 | 307 | 3.0 | 4.0 | 0.00 | 0.00 | 0.00 | 79 | 1006.8 |
| 20260505060907 | 49 | 300 | 3.0 | 6.0 | 0.00 | 0.00 | 0.00 | 79 | 1006.6 |
| 20260505060007 | 48 | 300 | 2.0 | 4.0 | 0.00 | 0.00 | 0.00 | 80 | 1006.8 |
| 20260505055405 | 48 | 295 | 2.0 | 4.0 | 0.00 | 0.00 | 0.00 | 80 | 1006.7 |
| 20260505054505 | 48 | 280 | 2.0 | 2.0 | 0.00 | 0.00 | 0.00 | 80 | 1006.7 |
| 20260505053607 | 48 | 278 | 2.0 | 4.0 | 0.00 | 0.00 | 0.00 | 80 | 1006.7 |
| 20260505052707 | 47 | 307 | 3.0 | 4.0 | 0.00 | 0.00 | 0.00 | 80 | 1006.7 |
| 20260505051806 | 46 | 295 | 3.0 | 4.0 | 0.00 | 0.00 | 0.00 | 82 | 1006.6 |
| 20260505050908 | 46 | 284 | 3.0 | 4.0 | 0.00 | 0.00 | 0.00 | 82 | 1006.6 |
| 20260505041120 | 46 | 293 | 2.0 | 4.0 | 0.00 | 0.00 | 0.00 | 81 | 1006.3 |
| 20260505040007 | 46 | 302 | 4.0 | 8.0 | 0.00 | 0.00 | 0.00 | 81 | 1006.5 |
| 20260505035407 | 46 | 288 | 3.0 | 4.0 | 0.00 | 0.00 | 0.00 | 81 | 1006.4 |
| 20260505034716 | 46 | 283 | 4.0 | 6.0 | 0.00 | 0.00 | 0.00 | 81 | 1006.5 |
| 20260505033607 | 46 | 285 | 4.0 | 4.0 | 0.00 | 0.00 | 0.00 | 81 | 1006.3 |
| 20260505032704 | 46 | 296 | 4.0 | 4.0 | 0.00 | 0.00 | 0.00 | 82 | 1006.2 |
| 20260505031805 | 45 | 295 | 2.0 | 4.0 | 0.00 | 0.00 | 0.00 | 83 | 1006.2 |
| 20260505030908 | 45 | 297 | 2.0 | 2.0 | 0.00 | 0.00 | 0.00 | 83 | 1006.3 |
| 20260505030007 | 45 | 288 | 2.0 | 2.0 | 0.00 | 0.00 | 0.00 | 84 | 1006.4 |
| 20260505025620 | 45 | 287 | 2.0 | 4.0 | 0.00 | 0.00 | 0.00 | 84 | 1006.4 |
| 20260505024508 | 46 | 288 | 2.0 | 2.0 | 0.00 | 0.00 | 0.00 | 84 | 1006.4 |
| 20260505023607 | 46 | 291 | 2.0 | 4.0 | 0.00 | 0.00 | 0.00 | 84 | 1006.5 |
| 20260505022707 | 46 | 306 | 1.0 | 2.0 | 0.00 | 0.00 | 0.00 | 83 | 1006.5 |
| 20260505022019 | 46 | 312 | 2.0 | 2.0 | 0.00 | 0.00 | 0.00 | 83 | 1006.5 |
| 20260505020907 | 46 | 285 | 1.0 | 2.0 | 0.00 | 0.00 | 0.00 | 82 | 1006.6 |
| 20260505020007 | 46 | 294 | 2.0 | 2.0 | 0.00 | 0.00 | 0.00 | 81 | 1006.8 |
| 20260505015408 | 46 | 283 | 2.0 | 4.0 | 0.00 | 0.00 | 0.00 | 81 | 1006.7 |
| 20260505014508 | 46 | 274 | 2.0 | 4.0 | 0.00 | 0.00 | 0.00 | 80 | 1006.8 |
| 20260505013606 | 46 | 263 | 2.0 | 4.0 | 0.00 | 0.00 | 0.00 | 79 | 1006.9 |
| 20260505012708 | 46 | 261 | 2.0 | 2.0 | 0.00 | 0.00 | 0.00 | 78 | 1006.9 |
| 20260505011808 | 47 | 266 | 2.0 | 4.0 | 0.00 | 0.00 | 0.00 | 76 | 1007.0 |
| 20260505010907 | 47 | 267 | 3.0 | 4.0 | 0.00 | 0.00 | 0.00 | 76 | 1006.9 |
| 20260505010009 | 48 | 277 | 3.0 | 4.0 | 0.00 | 0.00 | 0.00 | 75 | 1006.9 |
| 20260505005407 | 48 | 279 | 3.0 | 4.0 | 0.00 | 0.00 | 0.00 | 75 | 1007.0 |
| 20260505004507 | 48 | 288 | 4.0 | 7.0 | 0.00 | 0.00 | 0.00 | 74 | 1007.0 |
| 20260505003606 | 49 | 305 | 5.0 | 7.0 | 0.00 | 0.00 | 0.00 | 74 | 1007.0 |
| 20260505002706 | 49 | 302 | 6.0 | 8.0 | 0.00 | 0.00 | 0.00 | 72 | 1007.0 |
| 20260505001805 | 49 | 311 | 5.0 | 7.0 | 0.00 | 0.00 | 0.00 | 71 | 1007.2 |
| 20260505000907 | 50 | 302 | 6.0 | 7.0 | 0.00 | 0.00 | 0.00 | 70 | 1007.2 |
| 20260505000220 | 50 | 302 | 6.0 | 6.0 | 0.00 | 0.00 | 0.00 | 70 | 1007.1 |
| 20260504235406 | 50 | 292 | 5.0 | 6.0 | 0.00 | 0.00 | 0.00 | 71 | 1007.3 |
| 20260504234508 | 50 | 287 | 4.0 | 6.0 | 0.00 | 0.00 | 0.00 | 71 | 1007.3 |